Tracking 28096 objects as of 28-Sep-2023
HD Live streaming from Space Station
objects crossing your sky now

STARLINK-3896

Track STARLINK-3896 now!
10-day predictions
STARLINK-3896 is classified as:


NORAD ID: 52456
Int'l Code: 2022-049F
Perigee: 545.7 km
Apogee: 548.0 km
Inclination: 53.2 °
Period: 95.4 minutes
Semi major axis: 6917 km
RCS: Unknown
Launch date: May 6, 2022
Source: United States (US)
Launch site: AIR FORCE EASTERN TEST RANGE (AFETR)
Your satellite tracking list
Your tracking list is empty




NASA's NSSDC Master Catalog

Two Line Element Set (TLE):
1 52456U 22049F   23270.85464280 -.00000545  00000-0 -16121-4 0  9991
2 52456  53.2153 121.7017 0001628  90.9205 269.1974 15.08843729 77339
Source of the keplerian elements: AFSPC